Terminal Aerodrome Forecast
Issued by NWS Albany, NY

Home | Current Version | Previous Version | Text Only | Print | Product List | Glossary On
Versions: 1 2 3 4 5 6 7 8 9 10 11 12 13 14 15 16 17 18 19 20 21 22 23 24 25 26 27
000
FTUS41 KALY 160500
TAFPOU
TAF
KPOU 160520Z 1606/1706 00000KT P6SM BKN060
     FM161400 28004KT P6SM FEW025 SCT050
     FM170000 00000KT P6SM SKC=

USA.gov is the U.S. government's official web portal to all federal, state and local government web resources and services.